#timestamp,LO_Frequency,Hit,StdDev 
1549184415.5,286046997.0,N
1549184435.4,286046996.7,N
1549184455.2,286046996.9,N
1549184475.0,286046996.9,N
1549184475.9,286046996.9,N
1549184495.8,286047002.8,N
1549184515.6,286047015.5,Y
1549184535.4,286047013.1,P
1549184555.3,286047011.8,N
1549184575.1,286047007.8,N
1549184595.9,286047006.2,N
1549184615.7,286047005.0,N
1549184635.5,286047007.3,N
1549184655.4,286047005.1,N
1549184675.2,286047004.8,N
1549184695.0,286047005.4,N
1549184695.9,286047005.4,N
1549184715.8,286047005.8,N
1549184735.6,286047003.3,N
1549184755.5,286047006.0,N
1549184775.3,286047003.9,N
1549184795.1,286047004.0,N
1549184815.9,286047003.7,N
1549184835.7,286047003.5,N
1549184855.5,286047003.2,N
1549184875.4,286047005.8,N
1549184895.2,286047002.9,N
1549184915.1,286047002.2,N
1549184916.0,286047002.2,N
1549184935.8,286047002.7,N
1549184955.6,286046999.9,N
1549184975.5,286047000.3,N
1549184995.3,286046999.8,N
1549185015.1,286047002.8,N
1549185035.9,286047002.2,N
1549185055.7,286047002.6,N
1549185075.6,286047002.5,N
1549185095.4,286046999.9,N
1549185115.2,286047000.7,N
1549185135.1,286046999.9,N
1549185136.0,286046999.9,N
1549185155.8,286047000.1,N
1549185175.7,286047002.7,N
1549185195.5,286047002.5,N
1549185215.3,286047004.3,N
1549185235.2,286047004.0,N
1549185255.0,286047004.4,N
1549185255.9,286047004.4,N
1549185275.7,286047002.6,N
1549185295.6,286047002.7,N
1549185315.4,286047002.0,N
1549185335.3,286047001.3,N
1549185355.1,286047001.5,N
1549185356.0,286047001.5,N
1549185375.8,286047002.4,N
1549185395.7,286047001.6,N
1549185415.5,286047000.5,N
1549185435.3,286047002.4,N
1549185455.2,286047000.0,N
1549185475.0,286046999.8,N
1549185475.9,286046999.8,N
1549185495.8,286047000.6,N
1549185515.6,286047000.5,N
1549185535.4,286047000.4,N
1549185555.3,286047001.6,N
1549185575.1,286047001.6,N
1549185595.9,286047002.6,N
1549185615.7,286047000.2,N
1549185635.5,286047000.1,N
1549185655.4,286047000.5,N
1549185675.2,286047000.2,N
1549185695.0,286047000.2,N
1549185695.9,286047000.2,N
1549185715.8,286046999.8,N
1549185735.6,286047002.6,N
1549185755.5,286047002.1,N
1549185775.3,286047003.5,N
1549185795.1,286047001.6,N
1549185815.9,286047002.7,N
1549185835.7,286047002.0,N
1549185855.5,286047001.3,N
1549185875.4,286047002.0,N
1549185895.2,286047001.3,N
1549185915.1,286047002.1,N
1549185916.0,286047002.1,N
1549185935.8,286047001.3,N
1549185955.6,286047003.2,Y
1549185975.5,286047002.0,P
1549185995.3,286047002.5,P
1549186015.2,286047001.9,P
1549186035.9,286047002.0,Y
1549186055.7,286047000.7,P
1549186075.6,286047001.0,N
1549186095.4,286046998.3,P
1549186115.3,286046998.6,N
1549186135.1,286047001.1,N
1549186136.0,286047001.1,N
1549186155.9,286046998.5,N
1549186175.7,286046998.5,N
1549186195.5,286046998.5,N
1549186215.4,286046998.2,N
1549186235.2,286046999.8,N
1549186255.1,286047000.9,N
1549186256.0,286047000.9,N
1549186275.8,286046998.5,N
1549186295.6,286046999.0,N
1549186315.5,286046999.4,N
1549186335.3,286046999.3,N
1549186355.1,286046996.6,N
1549186375.9,286046999.6,N
1549186395.7,286046999.6,N
1549186415.6,286046996.8,N
1549186435.4,286046997.4,N
1549186455.2,286046996.9,N
1549186475.1,286046999.4,N
1549186476.0,286046999.4,N
1549186495.8,286046996.9,N
1549186515.7,286046999.6,N
1549186535.5,286046998.9,N
1549186555.3,286046996.5,N
1549186575.2,286046998.3,N
1549186595.0,286046998.2,N
1549186595.9,286046998.2,N
1549186615.8,286046999.3,N
1549186635.6,286047000.8,N
1549186655.4,286046998.2,N
1549186675.3,286047001.1,N
1549186695.1,286046998.5,N
1549186715.9,286046998.5,N
1549186735.7,286046998.3,N
1549186755.5,286047000.4,N
1549186775.4,286046998.9,N
1549186795.2,286046999.4,N
1549186815.1,286046998.5,N
1549186816.0,286046998.5,N
1549186835.8,286047001.0,N
1549186855.6,286047001.1,N
1549186875.5,286047001.0,N
1549186895.3,286047000.4,N
1549186915.2,286047000.4,N
1549186935.9,286047000.3,N
1549186955.7,286046999.1,N
1549186975.6,286046998.7,N
1549186995.4,286047001.1,N
1549187015.2,286047000.3,N
1549187035.1,286047001.1,N
1549187036.0,286047001.1,N
1549187055.8,286046998.1,N
1549187075.7,286047000.0,N
1549187095.5,286046998.3,N
1549187115.3,286047000.8,N
1549187135.2,286046998.2,N
1549187155.0,286046998.1,N
1549187155.9,286046998.1,N
1549187175.7,286047000.8,N
1549187195.6,286047000.4,N
1549187215.4,286047002.5,N
1549187235.3,286047002.3,N
1549187255.1,286047000.8,N
1549187256.0,286047000.8,N
1549187275.8,286047000.4,N
1549187295.7,286047001.2,N
1549187315.5,286047000.1,N
1549187335.3,286047000.3,N
1549187355.2,286046998.1,N
1549187375.0,286046998.5,N
1549187375.9,286046998.5,N
1549187395.8,286047002.7,N
1549187415.6,286047000.5,N
1549187435.4,286047000.7,N
1549187455.3,286046998.1,N
1549187475.1,286046998.7,N
1549187495.9,286047001.1,N
1549187515.7,286046999.8,N
1549187535.5,286047002.3,N
1549187555.4,286047000.2,N
1549187575.2,286047002.7,N
1549187595.0,286046999.8,N
1549187595.9,286046999.8,N
1549187615.8,286047000.9,N
1549187635.6,286047000.6,N
1549187655.5,286047001.0,N
1549187675.3,286046998.1,N
1549187695.1,286047000.3,N
1549187715.9,286047002.4,N
1549187735.7,286047000.4,N
1549187755.6,286047000.9,N
1549187775.4,286047000.6,N
1549187795.2,286047000.4,N
1549187815.1,286047002.2,N
1549187816.0,286047002.2,N
1549187835.8,286047002.0,N
1549187855.6,286047001.9,N
1549187875.5,286047002.8,N
1549187895.3,286046999.8,N
1549187915.2,286046999.7,N
1549187935.9,286047001.6,N
1549187955.7,286047001.9,N
1549187975.6,286046999.8,N
1549187995.4,286046999.7,N
